Weather Service Report


466 
ASUS41 KBOX 300210
RWRBOX

REGIONAL WEATHER ROUNDUP
NATIONAL WEATHER SERVICE TAUNTON MA
1000 PM EDT MON MAY 29 2017

NOTE:  "FAIR" INDICATES FEW OR NO CLOUDS BELOW 12,000 FEET WITH NO 
SIGNIFICANT WEATHER AND/OR OBSTRUCTIONS TO VISIBILITY.

MAZALL-300300-
EASTERN MASSACHUSETTS
  
CITY           SKY/WX    TMP DP  RH WIND       PRES   REMARKS
BOSTON         CLOUDY    49  48  97 VRB7      30.14R                  
BEVERLY        CLOUDY    49  48  97 N5        30.14R                  
LAWRENCE       CLOUDY    50  47  89 NE8       30.16R                  
BEDFORD        CLOUDY    48  45  89 NE5       30.14R                  
BLUE HILL        N/A     47  45  93 NE8       30.11S                  
NORWOOD        CLOUDY    50  48  93 NE6       30.13S                  
MARSHFIELD     CLOUDY    50  50 100 VRB3      30.13R FOG              
PLYMOUTH       NOT AVBL                                               
TAUNTON        CLOUDY    50  47  89 CALM      30.13R                  
NEW BEDFORD    CLOUDY    50  48  93 N6        30.12R                  
$$

MAZALL-300300-
CAPE COD AND THE ISLANDS
  
CITY           SKY/WX    TMP DP  RH WIND       PRES   REMARKS
FALMOUTH         N/A    N/A N/A N/A MISG        N/A                   
HYANNIS        CLOUDY    51  50  96 NE7       30.10R                  
CHATHAM        CLOUDY    50  50 100 NE5       30.12R                  
PROVINCETOWN   CLOUDY    49  48  97 NE9       30.13R                  
NANTUCKET      CLOUDY    50  48  93 NE13      30.09R                  
MARTHAS VNYRD  CLOUDY    52  50  93 N8        30.11R FOG              
$$
 
MAZALL-300300-
CENTRAL AND WESTERN MASSACHUSETTS
  
CITY           SKY/WX    TMP DP  RH WIND       PRES   REMARKS
WORCESTER      FOG       47  45  93 E7        30.12R VSB 1/4          
FITCHBURG      CLOUDY    50  47  89 E3        30.15R                  
ORANGE         CLOUDY    49  48  97 E5        30.12R                  
SPRINGFIELD    CLOUDY    52  48  86 VRB3      30.10S                  
WESTFIELD      CLOUDY    53  52  96 CALM      30.11R                  
NORTH ADAMS    CLOUDY    53  49  86 E8        30.07S                  
$$
 
RIZALL-300300-
RHODE ISLAND
  
CITY           SKY/WX    TMP DP  RH WIND       PRES   REMARKS
PROVIDENCE     CLOUDY    51  51 100 NE7       30.13R                  
NEWPORT        CLOUDY    51  50  96 NE8       30.11R                  
BLOCK ISLAND   CLOUDY    52  50  93 NE9       30.12R                  
SMITHFIELD     CLOUDY    49  48  97 NE5       30.13R                  
WESTERLY       CLOUDY    52  50  93 NE6       30.11S                  
$$
 
CTZALL-300300-
CONNECTICUT
  
CITY           SKY/WX    TMP DP  RH WIND       PRES   REMARKS
BRADLEY INTL   CLOUDY    54  50  86 E7        30.11R                  
HARTFORD       CLOUDY    55  51  86 CALM      30.11R                  
BRIDGEPORT     CLOUDY    57  52  83 E6        30.10S                  
DANBURY        CLOUDY    52  52 100 CALM      30.11R                  
GROTON         CLOUDY    52  49  89 NE6       30.11R                  
NEW HAVEN      CLOUDY    56  53  90 E3        30.11R                  
CHESTER        CLOUDY    54  52  94 CALM      30.11R                  
MERIDEN        CLOUDY    55  53  93 CALM      30.11R                  
WILLIMANTIC    CLOUDY    53  49  86 CALM      30.12S                  
OXFORD           N/A     54  48  82 E5        30.12R                  
$$

MEZ002-015-021-024-NHZ003-005-008-011-012-014-VTZ005-008-300300-
NORTHERN NEW ENGLAND
  
CITY           SKY/WX    TMP DP  RH WIND       PRES   REMARKS
PORTLAND ME    CLOUDY    47  46  97 SE7       30.17R FOG              
BANGOR ME      CLOUDY    51  46  83 S3        30.15R                  
CONCORD NH     CLOUDY    48  45  89 CALM      30.15R                  
MANCHESTER NH  CLOUDY    48  44  86 E5        30.13R                  
NASHUA NH      CLOUDY    49  47  93 E3        30.16R                  
PORTSMOUTH NH  CLOUDY    47  45  95 NE7       30.14S                  
JAFFREY NH     CLOUDY    47  47 100 CALM      30.12R FOG              
KEENE NH       CLOUDY    50  47  89 CALM      30.12R                  
BURLINGTON VT  CLOUDY    57  50  77 S7        30.02R                  
MT. WASHINGTON FOG       34  34 100 SW20G30     N/A  VSB 0   WCI  22  
$$

NYZ052-076-300300-
EASTERN NEW YORK
  
CITY           SKY/WX    TMP DP  RH WIND       PRES   REMARKS
ALBANY         CLOUDY    57  50  77 S8        30.06R                  
NEW YORK CITY  CLOUDY    59  53  80 E8        30.08R                  
$$
 
ANZALL-300300-
MARINE OBSERVATIONS
  
STATION/POSITION TIME  TEMP    WIND        PRES    VSBY  WAVE
                       AIR SEA DIR/SP/G                  HT/PER
                 (UTC) (F)     (DEG/KT/KT) (MB)    (MI)  (FT/S)
BOSTON BUOY      0050   49 51   30/ 12/ 14 1019.4          3/ 6
BUZZARDS BAY     0200   51      20/ 16/ 17 1019.9R
NANTUCKET SOUND  0150      53              1019.1R         2/ 3
MASS BAY-STELLWA 0104   49 51   30/ 10/ 12 1019.8R         3/ 7
ISLE OF SHOALS   0200   47      30/ 10/ 11 1020.8R
S OF BLOCK IS    0155      53                N/A           5/ 6
$$

......................KEY.........................
  SKY/WX - SKY CONDITION/PRESENT WEATHER
  TMP    - TEMPERATURE IN FAHRENHEIT
  DWPT   - DEWPOINT IN FAHRENHEIT
  RH     - RELATIVE HUMIDITY IN PERCENT
  WIND   - DIRECTION AND SPEED IN MPH
  PRES   - MEAN SEA LEVEL PRESSURE IN INCHES OF HG
  WCI    - WIND CHILL INDEX
  VSB    - VISIBILITY IN MILES
  HX     - HEAT INDEX
  TC     - TEMPERATURE IN CELSIUS
  VRB    - VARIABLE WIND DIRECTION
  N/A    - NOT AVAILABLE
  

Return to Home page


Western Regional Climate Center, wrcc@dri.edu